Regional Weather Roundup
Issued by NWS State College, PA

Home | Current Version | Previous Version | Text Only | Print | Product List | Glossary On
Versions: 1 2 3 4 5 6 7 8 9 10 11 12 13 14 15 16 17 18 19 20 21 22 23 24 25 26 27 28 29 30 31 32 33 34 35 36 37 38 39 40 41 42 43 44 45 46 47 48 49 50
000
ASUS41 KCTP 161410
RWRCTP

REGIONAL WEATHER ROUNDUP
NATIONAL WEATHER SERVICE STATE COLLEGE PA
1000 AM EDT WED APR 16 2014

Note: "fair" indicates few or no clouds below 12,000 feet with no
significant weather and/or obstructions to visibility.

* = STATION THAT DOES NOT REPORT PRECIPITATION /E.G. RAIN...SNOW...ETC/
    THUNDER OR FOG.

PAZ002>004-007>009-013>016-020>023-029>032-161500-
WESTERN PENNSYLVANIA

CITY           SKY/WX    TMP DP  RH WIND       PRES   REMARKS
ERIE           SUNNY     30  10  43 CALM      30.47R
MEADVILLE      SUNNY     28  15  58 CALM      30.43R
FRANKLIN*      SUNNY     27  10  50 N6        30.44R
NEW CASTLE     FAIR      27  14  57 CALM      30.48R
BEAVER COUNTY  SUNNY     30  16  55 E3        30.45R
BUTLER*        SUNNY     28  10  47 NE7       30.47R
PITTSBURGH INT MOSUNNY   29  11  47 CALM      30.45R
PITTSBURGH     SUNNY     31  13  47 VRB5      30.44R
INDIANA*       SUNNY     28  12  50 NE6       30.45R
LATROBE        MOSUNNY   30  12  47 NE12      30.46R
WASHINGTON CO* SUNNY     30  16  55 NE10      30.46R
$$

PAZ004>006-010>012-017>019-024>028-033>037-041-042-045-046-049>053-161500-
CENTRAL PENNSYLVANIA

CITY           SKY/WX    TMP DP  RH WIND       PRES   REMARKS
BRADFORD       SUNNY     23   8  52 N12       30.36R WCI  12
DUBOIS         SUNNY     27  12  53 N9        30.39R
CLEARFIELD     SUNNY     28   8  43 NW12G17   30.41R
JOHNSTOWN      SUNNY     23   8  52 NW7       30.35R WCI  15
ALTOONA        SUNNY     28  10  46 N12       30.40R
STATE COLLEGE  SUNNY     30   9  40 W7        30.43R
WILLIAMSPORT   PTSUNNY   32  13  45 NW10      30.43R
SELINSGROVE    SUNNY     31  13  47 NW9       30.45R
FT INDIANTOWN  SUNNY     31  11  43 N8G22     30.41R
CAPITAL CITY   SUNNY     33  10  38 NW10G21   30.43R
HARRISBURG     SUNNY     35  11  36 NW17G23   30.42R
YORK           SUNNY     33  12  41 N12       30.41R
$$

PAZ038>040-043-044-047-048-054-055-060>062-067>071-161500-
EASTERN PENNSYLVANIA

CITY           SKY/WX    TMP DP  RH WIND       PRES   REMARKS
SCRANTON       CLOUDY    27  16  63 N15G23    30.37R
MOUNT POCONO   PTSUNNY   25  14  63 NW16G22   30.26R WCI  12
ALLENTOWN      SUNNY     33  16  49 N17G23    30.37R
QUAKERTOWN*    SUNNY     32  16  51 NW9G21    30.37R
READING        SUNNY     34  15  46 NW18      30.39R
LANCASTER      SUNNY     32  12  43 NW15G23   30.40R
COATESVILLE    NOT AVBL
POTTSTOWN      SUNNY     33  15  47 N16       30.39R
BLUE BELL      SUNNY     36  18  48 N9G18     30.36R
DOYLESTOWN     SUNNY     33  15  47 N15G29    30.34R
WILLOW GROVE   NOT AVBL
NORTH PHILA    SUNNY     37  15  40 N18       30.37R
PHILADELPHIA   SUNNY     36  12  37 NW21G30   30.37R
$$



USA.gov is the U.S. government's official web portal to all federal, state and local government web resources and services.